QPF
0.02 0.02 0.03 0.04 0.05 0.04 0.03 0.03 0.03 0.02 0.03 0.04 0.05 0.04 0.03 0.04 0.03 0.03 0.02 0.02 0.05 0.06 0.08 0.09 0.08 0.07 0.07 0.07 0.08 0.08 0.06 0.05 0.05 0.05 0.05 0.04 0.04 0.04 0.04 0.04 0.05 0.06 0.06
0.03 0.03 0.03 0.04 0.05 0.04 0.04 0.04 0.04 0.03 0.03 0.04 0.03 0.02 0.02 0.03 0.03 0.03 0.03 0.03 0.06 0.08 0.08 0.11 0.11 0.11 0.09 0.07 0.06 0.08 0.07 0.06 0.05 0.05 0.04 0.04 0.05 0.06 0.06 0.05 0.05 0.05 0.04
0.06 0.05 0.04 0.05 0.06 0.05 0.05 0.04 0.05 0.04 0.03 0.04 0.04 0.04 0.03 0.03 0.04 0.05 0.04 0.03 0.03 0.06 0.07 0.10 0.12 0.12 0.14 0.13 0.11 0.10 0.09 0.07 0.08 0.08 0.06 0.06 0.06 0.07 0.06 0.05 0.06 0.05 0.04
0.08 0.07 0.05 0.04 0.06 0.06 0.06 0.06 0.06 0.06 0.04 0.04 0.05 0.05 0.05 0.05 0.05 0.05 0.04 0.03 0.03 0.03 0.04 0.09 0.11 0.13 0.17 0.18 0.14 0.12 0.12 0.12 0.11 0.10 0.10 0.09 0.10 0.10 0.07 0.06 0.05 0.04 0.04
0.06 0.08 0.06 0.05 0.05 0.05 0.06 0.06 0.07 0.06 0.06 0.06 0.05 0.05 0.06 0.06 0.05 0.05 0.04 0.04 0.05 0.05 0.05 0.07 0.10 0.14 0.17 0.16 0.15 0.13 0.12 0.09 0.08 0.09 0.10 0.11 0.10 0.09 0.07 0.06 0.05 0.03 0.03
0.05 0.07 0.06 0.06 0.05 0.04 0.04 0.04 0.06 0.07 0.08 0.07 0.07 0.06 0.06 0.05 0.04 0.04 0.04 0.04 0.03 0.04 0.05 0.05 0.08 0.11 0.15 0.15 0.16 0.15 0.14 0.10 0.07 0.07 0.08 0.07 0.08 0.06 0.05 0.05 0.05 0.05 0.04
0.04 0.04 0.04 0.05 0.05 0.03 0.03 0.05 0.08 0.08 0.09 0.08 0.08 0.06 0.05 0.05 0.05 0.04 0.05 0.04 0.04 0.04 0.04 0.06 0.08 0.09 0.10 0.14 0.16 0.17 0.15 0.12 0.11 0.09 0.08 0.06 0.05 0.05 0.06 0.07 0.09 0.08 0.07
0.05 0.04 0.03 0.04 0.05 0.04 0.03 0.05 0.05 0.04 0.06 0.08 0.08 0.06 0.04 0.04 0.04 0.04 0.04 0.04 0.05 0.05 0.05 0.06 0.06 0.08 0.09 0.09 0.09 0.12 0.15 0.14 0.12 0.10 0.10 0.08 0.06 0.07 0.08 0.07 0.07 0.06 0.05
0.05 0.05 0.03 0.04 0.04 0.04 0.04 0.04 0.03 0.02 0.05 0.06 0.07 0.05 0.03 0.03 0.04 0.05 0.04 0.04 0.05 0.04 0.05 0.05 0.06 0.06 0.05 0.06 0.08 0.10 0.10 0.11 0.13 0.11 0.09 0.08 0.07 0.08 0.09 0.09 0.08 0.06 0.04
0.06 0.07 0.06 0.08 0.09 0.08 0.06 0.04 0.05 0.05 0.06 0.05 0.06 0.05 0.04 0.04 0.03 0.04 0.05 0.04 0.05 0.06 0.06 0.05 0.06 0.05 0.04 0.05 0.06 0.07 0.09 0.12 0.15 0.17 0.18 0.17 0.14 0.11 0.09 0.08 0.07 0.07 0.04
0.06 0.05 0.08 0.11 0.10 0.09 0.07 0.05 0.04 0.05 0.06 0.06 0.06 0.05 0.05 0.03 0.02 0.03 0.07 0.07 0.04 0.04 0.04 0.04 0.04 0.03 0.03 0.05 0.06 0.07 0.08 0.10 0.14 0.17 0.18 0.18 0.15 0.12 0.09 0.07 0.06 0.07 0.06
0.04 0.04 0.06 0.08 0.08 0.05 0.04 0.04 0.04 0.04 0.06 0.06 0.04 0.04 0.05 0.04 0.02 0.03 0.03 0.04 0.03 0.03 0.02 0.02 0.02 0.01 0.02 0.04 0.08 0.13 0.14 0.14 0.15 0.17 0.16 0.15 0.15 0.14 0.12 0.10 0.08 0.07 0.07
0.02 0.03 0.03 0.04 0.04 0.02 0.03 0.03 0.04 0.03 0.03 0.04 0.04 0.04 0.05 0.04 0.04 0.05 0.05 0.04 0.03 0.02 0.02 0.02 0.02 0.01 0.02 0.02 0.03 0.06 0.09 0.10 0.11 0.14 0.17 0.16 0.13 0.12 0.13 0.12 0.11 0.09 0.07
0.01 0.02 0.02 0.02 0.01 0.02 0.02 0.02 0.04 0.03 0.03 0.04 0.06 0.06 0.06 0.06 0.06 0.06 0.06 0.05 0.04 0.03 0.02 0.02 0.03 0.03 0.02 0.02 0.03 0.03 0.05 0.06 0.06 0.10 0.13 0.15 0.14 0.14 0.14 0.13 0.12 0.11 0.09
0.01 0.01 0.01 0.01 0.01 0.01 0.01 0.01 0.03 0.03 0.04 0.05 0.06 0.07 0.08 0.09 0.11 0.10 0.08 0.06 0.05 0.04 0.04 0.03 0.03 0.03 0.03 0.03 0.03 0.03 0.04 0.05 0.06 0.08 0.08 0.10 0.12 0.11 0.10 0.09 0.10 0.11 0.10
0.02 0.02 0.02 0.01 0.01 0.01 0.01 0.01 0.02 0.02 0.02 0.03 0.04 0.05 0.07 0.07 0.09 0.10 0.09 0.07 0.06 0.05 0.05 0.04 0.03 0.04 0.04 0.05 0.06 0.04 0.04 0.05 0.06 0.06 0.05 0.07 0.10 0.09 0.10 0.09 0.09 0.09 0.10
0.01 0.02 0.03 0.02 0.01 0.01 0.01 0.01 0.01 0.02 0.02 0.02 0.02 0.03 0.03 0.04 0.04 0.05 0.07 0.08 0.08 0.08 0.06 0.05 0.04 0.05 0.06 0.07 0.06 0.05 0.05 0.04 0.04 0.03 0.05 0.09 0.11 0.10 0.09 0.08 0.07 0.06 0.06
0.01 0.01 0.02 0.02 0.02 0.02 0.01 0.01 0.01 0.02 0.04 0.04 0.04 0.04 0.04 0.03 0.03 0.04 0.04 0.04 0.06 0.07 0.07 0.07 0.07 0.07 0.07 0.06 0.05 0.05 0.04 0.03 0.02 0.03 0.04 0.06 0.09 0.10 0.07 0.06 0.04 0.03 0.03
0.01 0.01 0.01 0.02 0.02 0.01 0.01 0.01 0.01 0.02 0.04 0.04 0.03 0.03 0.03 0.03 0.03 0.04 0.04 0.04 0.05 0.07 0.07 0.07 0.07 0.06 0.05 0.05 0.04 0.04 0.03 0.02 0.02 0.03 0.04 0.04 0.05 0.05 0.05 0.04 0.03 0.03 0.02
0.01 0.01 0.02 0.02 0.01 0.01 0.01 0.02 0.01 0.02 0.02 0.02 0.02 0.02 0.02 0.02 0.03 0.03 0.03 0.03 0.05 0.06 0.05 0.04 0.03 0.03 0.04 0.04 0.03 0.02 0.02 0.01 0.02 0.03 0.04 0.06 0.06 0.05 0.05 0.05 0.03 0.02 0.01
0.01 0.01 0.02 0.02 0.01 0.01 0.01 0.02 0.02 0.02 0.02 0.01 0.01 0.01 0.01 0.01 0.02 0.03 0.03 0.02 0.03 0.03 0.02 0.02 0.03 0.04 0.05 0.04 0.03 0.01 0.01 0.01 0.02 0.02 0.04 0.06 0.08 0.07 0.06 0.06 0.03 0.02 0.01
0.01 0.01 0.02 0.01 0.01 0.01 0.01 0.01 0.02 0.02 0.02 0.01 0.01 0.01 0.01 0.01 0.01 0.02 0.03 0.03 0.03 0.03 0.02 0.02 0.03 0.04 0.04 0.03 0.02 0.01 0.01 0.01 0.02 0.03 0.05 0.07 0.07 0.06 0.06 0.05 0.03 0.01 0.00
0.01 0.01 0.01 0.01 0.01 0.01 0.01 0.01 0.01 0.01 0.01 0.01 0.01 0.00 0.01 0.01 0.01 0.01 0.01 0.02 0.02 0.03 0.03 0.02 0.02 0.02 0.02 0.02 0.01 0.01 0.01 0.02 0.03 0.06 0.07 0.08 0.05 0.03 0.03 0.02 0.01 0.01 0.00
0.02 0.01 0.01 0.02 0.02 0.01 0.01 0.01 0.01 0.01 0.01 0.01 0.01 0.01 0.01 0.01 0.01 0.01 0.01 0.01 0.01 0.01 0.02 0.01 0.01 0.01 0.01 0.01 0.01 0.01 0.01 0.02 0.03 0.04 0.05 0.04 0.02 0.01 0.01 0.01 0.01 0.01 0.00
0.02 0.01 0.02 0.02 0.02 0.02 0.01 0.00 0.01 0.01 0.01 0.01 0.01 0.01 0.01 0.01 0.01 0.02 0.01 0.01 0.00 0.00 0.00 0.00 0.00 0.01 0.01 0.01 0.01 0.01 0.01 0.03 0.04 0.04 0.03 0.02 0.02 0.01 0.01 0.01 0.01 0.00 0.00
0.02 0.01 0.01 0.02 0.02 0.02 0.01 0.01 0.01 0.01 0.01 0.01 0.02 0.02 0.02 0.02 0.02 0.01 0.01 0.01 0.00 0.00 0.00 0.00 0.01 0.01 0.00 0.01 0.01 0.01 0.02 0.03 0.03 0.02 0.02 0.02 0.02 0.01 0.01 0.01 0.01 0.00 0.00
MSLP
1016.97 1017.01 1016.95 1016.81 1016.62 1016.41 1016.22 1016.08 1016.01 1015.99 1016.02 1016.06 1016.09 1016.11 1016.09 1016.06 1016.04 1016.03 1016.08 1016.18 1016.33 1016.53 1016.75 1016.98 1017.19 1017.35 1017.46 1017.53 1017.55 1017.54 1017.53 1017.53 1017.56 1017.64 1017.76 1017.92 1018.10 1018.30 1018.48 1018.65 1018.78 1018.89 1018.99
1017.05 1017.09 1017.05 1016.92 1016.75 1016.56 1016.41 1016.31 1016.28 1016.32 1016.41 1016.50 1016.57 1016.61 1016.59 1016.54 1016.47 1016.41 1016.39 1016.44 1016.56 1016.74 1016.96 1017.18 1017.38 1017.51 1017.56 1017.53 1017.44 1017.31 1017.18 1017.08 1017.05 1017.11 1017.26 1017.49 1017.77 1018.07 1018.35 1018.59 1018.78 1018.91 1019.01
1017.17 1017.22 1017.19 1017.09 1016.96 1016.82 1016.72 1016.68 1016.72 1016.83 1016.98 1017.13 1017.26 1017.32 1017.32 1017.26 1017.16 1017.06 1016.99 1016.98 1017.05 1017.18 1017.35 1017.51 1017.64 1017.68 1017.62 1017.45 1017.20 1016.91 1016.64 1016.43 1016.35 1016.40 1016.60 1016.91 1017.30 1017.73 1018.13 1018.47 1018.72 1018.89 1019.00
1017.35 1017.40 1017.39 1017.32 1017.23 1017.15 1017.12 1017.15 1017.25 1017.43 1017.64 1017.86 1018.04 1018.15 1018.18 1018.13 1018.03 1017.90 1017.80 1017.74 1017.75 1017.81 1017.89 1017.96 1017.96 1017.85 1017.62 1017.27 1016.84 1016.37 1015.95 1015.63 1015.49 1015.54 1015.79 1016.20 1016.72 1017.27 1017.80 1018.24 1018.57 1018.78 1018.90
1017.60 1017.64 1017.63 1017.60 1017.55 1017.53 1017.54 1017.63 1017.79 1018.01 1018.27 1018.54 1018.76 1018.93 1019.01 1019.00 1018.92 1018.82 1018.71 1018.62 1018.58 1018.56 1018.54 1018.48 1018.33 1018.04 1017.62 1017.07 1016.43 1015.79 1015.21 1014.79 1014.60 1014.65 1014.95 1015.45 1016.07 1016.75 1017.38 1017.92 1018.31 1018.56 1018.69
1017.91 1017.92 1017.92 1017.90 1017.88 1017.89 1017.94 1018.05 1018.23 1018.47 1018.76 1019.05 1019.32 1019.53 1019.67 1019.73 1019.72 1019.66 1019.59 1019.51 1019.44 1019.37 1019.26 1019.07 1018.76 1018.30 1017.68 1016.94 1016.12 1015.31 1014.60 1014.09 1013.85 1013.90 1014.23 1014.79 1015.50 1016.25 1016.97 1017.56 1017.99 1018.26 1018.39
1018.26 1018.24 1018.22 1018.21 1018.21 1018.22 1018.28 1018.38 1018.55 1018.77 1019.04 1019.33 1019.62 1019.87 1020.08 1020.22 1020.31 1020.34 1020.34 1020.31 1020.26 1020.17 1020.00 1019.72 1019.29 1018.68 1017.91 1017.01 1016.05 1015.11 1014.30 1013.72 1013.43 1013.47 1013.81 1014.39 1015.13 1015.92 1016.66 1017.27 1017.71 1017.97 1018.08
1018.64 1018.59 1018.55 1018.54 1018.53 1018.54 1018.57 1018.63 1018.75 1018.91 1019.13 1019.39 1019.67 1019.95 1020.22 1020.45 1020.64 1020.79 1020.91 1020.97 1020.98 1020.91 1020.74 1020.42 1019.92 1019.24 1018.38 1017.39 1016.34 1015.33 1014.46 1013.83 1013.51 1013.51 1013.83 1014.40 1015.12 1015.88 1016.59 1017.17 1017.57 1017.79 1017.87
1019.04 1018.96 1018.92 1018.89 1018.87 1018.85 1018.84 1018.85 1018.89 1018.97 1019.10 1019.30 1019.55 1019.83 1020.14 1020.45 1020.75 1021.03 1021.26 1021.45 1021.56 1021.57 1021.44 1021.15 1020.67 1019.98 1019.11 1018.11 1017.06 1016.03 1015.15 1014.50 1014.15 1014.12 1014.39 1014.89 1015.53 1016.22 1016.85 1017.35 1017.67 1017.83 1017.86
1019.45 1019.36 1019.31 1019.28 1019.25 1019.21 1019.15 1019.09 1019.04 1019.02 1019.06 1019.17 1019.36 1019.62 1019.95 1020.31 1020.70 1021.08 1021.44 1021.75 1021.98 1022.10 1022.07 1021.87 1021.47 1020.87 1020.08 1019.15 1018.15 1017.18 1016.33 1015.69 1015.32 1015.24 1015.43 1015.84 1016.37 1016.94 1017.46 1017.84 1018.08 1018.16 1018.13
1019.86 1019.77 1019.73 1019.70 1019.67 1019.61 1019.51 1019.39 1019.26 1019.15 1019.09 1019.11 1019.22 1019.43 1019.74 1020.12 1020.55 1021.01 1021.47 1021.89 1022.24 1022.48 1022.59 1022.53 1022.27 1021.80 1021.16 1020.37 1019.50 1018.63 1017.85 1017.24 1016.87 1016.74 1016.85 1017.14 1017.54 1017.98 1018.36 1018.63 1018.76 1018.77 1018.69
1020.24 1020.17 1020.14 1020.13 1020.10 1020.03 1019.91 1019.75 1019.56 1019.37 1019.23 1019.16 1019.19 1019.34 1019.60 1019.96 1020.39 1020.88 1021.39 1021.89 1022.34 1022.71 1022.95 1023.05 1022.96 1022.68 1022.23 1021.62 1020.91 1020.19 1019.51 1018.96 1018.58 1018.41 1018.44 1018.62 1018.90 1019.20 1019.45 1019.62 1019.67 1019.61 1019.49
1020.57 1020.51 1020.50 1020.50 1020.49 1020.43 1020.31 1020.13 1019.91 1019.68 1019.47 1019.34 1019.29 1019.37 1019.56 1019.86 1020.26 1020.73 1021.25 1021.79 1022.30 1022.77 1023.14 1023.39 1023.49 1023.41 1023.16 1022.75 1022.24 1021.67 1021.11 1020.62 1020.27 1020.07 1020.02 1020.11 1020.27 1020.46 1020.62 1020.71 1020.70 1020.60 1020.45
1020.83 1020.77 1020.77 1020.78 1020.78 1020.74 1020.64 1020.47 1020.25 1020.01 1019.78 1019.60 1019.50 1019.51 1019.63 1019.86 1020.19 1020.61 1021.10 1021.63 1022.17 1022.69 1023.16 1023.55 1023.81 1023.92 1023.87 1023.67 1023.34 1022.92 1022.48 1022.07 1021.75 1021.53 1021.44 1021.46 1021.54 1021.65 1021.75 1021.79 1021.75 1021.64 1021.49
1020.99 1020.93 1020.92 1020.93 1020.95 1020.93 1020.85 1020.72 1020.53 1020.31 1020.09 1019.90 1019.78 1019.74 1019.79 1019.95 1020.20 1020.54 1020.97 1021.45 1021.99 1022.53 1023.07 1023.55 1023.95 1024.21 1024.34 1024.31 1024.15 1023.89 1023.56 1023.23 1022.94 1022.73 1022.62 1022.59 1022.63 1022.70 1022.77 1022.79 1022.76 1022.66 1022.52
1021.06 1020.98 1020.95 1020.96 1020.98 1020.97 1020.93 1020.85 1020.71 1020.54 1020.37 1020.21 1020.09 1020.03 1020.04 1020.13 1020.30 1020.57 1020.92 1021.34 1021.83 1022.37 1022.93 1023.47 1023.95 1024.34 1024.60 1024.72 1024.70 1024.56 1024.34 1024.09 1023.84 1023.65 1023.54 1023.49 1023.52 1023.58 1023.64 1023.68 1023.67 1023.60 1023.50
1021.04 1020.94 1020.89 1020.88 1020.90 1020.92 1020.91 1020.87 1020.80 1020.70 1020.59 1020.49 1020.40 1020.35 1020.35 1020.40 1020.52 1020.72 1020.99 1021.34 1021.78 1022.28 1022.82 1023.38 1023.91 1024.36 1024.71 1024.94 1025.02 1024.99 1024.86 1024.68 1024.49 1024.33 1024.23 1024.20 1024.23 1024.30 1024.38 1024.44 1024.46 1024.44 1024.37
1020.97 1020.85 1020.79 1020.77 1020.79 1020.82 1020.84 1020.86 1020.85 1020.82 1020.79 1020.75 1020.72 1020.71 1020.72 1020.76 1020.85 1021.00 1021.21 1021.49 1021.86 1022.30 1022.81 1023.34 1023.87 1024.36 1024.75 1025.04 1025.20 1025.24 1025.19 1025.07 1024.94 1024.83 1024.76 1024.76 1024.81 1024.89 1024.99 1025.08 1025.14 1025.15 1025.11
1020.85 1020.74 1020.68 1020.67 1020.69 1020.74 1020.80 1020.85 1020.90 1020.94 1020.98 1021.02 1021.05 1021.09 1021.14 1021.20 1021.28 1021.39 1021.55 1021.78 1022.08 1022.46 1022.90 1023.38 1023.87 1024.34 1024.74 1025.06 1025.26 1025.36 1025.37 1025.32 1025.25 1025.19 1025.17 1025.19 1025.27 1025.38 1025.50 1025.60 1025.68 1025.72 1025.70
1020.68 1020.62 1020.59 1020.61 1020.65 1020.72 1020.80 1020.88 1020.97 1021.07 1021.17 1021.27 1021.37 1021.47 1021.57 1021.66 1021.75 1021.85 1021.98 1022.16 1022.39 1022.69 1023.06 1023.46 1023.89 1024.31 1024.69 1025.00 1025.22 1025.36 1025.43 1025.44 1025.43 1025.43 1025.45 1025.51 1025.62 1025.74 1025.87 1025.99 1026.08 1026.12 1026.13
1020.46 1020.47 1020.50 1020.56 1020.64 1020.73 1020.83 1020.94 1021.06 1021.19 1021.34 1021.49 1021.65 1021.80 1021.95 1022.08 1022.19 1022.30 1022.42 1022.55 1022.73 1022.95 1023.22 1023.54 1023.88 1024.23 1024.56 1024.84 1025.07 1025.23 1025.34 1025.41 1025.46 1025.52 1025.60 1025.70 1025.83 1025.97 1026.11 1026.23 1026.31 1026.36 1026.37
1020.14 1020.24 1020.35 1020.47 1020.60 1020.72 1020.84 1020.97 1021.11 1021.26 1021.43 1021.62 1021.82 1022.02 1022.21 1022.39 1022.54 1022.66 1022.77 1022.87 1022.99 1023.14 1023.33 1023.55 1023.80 1024.07 1024.33 1024.58 1024.79 1024.97 1025.11 1025.23 1025.35 1025.46 1025.59 1025.73 1025.89 1026.05 1026.19 1026.30 1026.38 1026.42 1026.43
1019.69 1019.88 1020.08 1020.28 1020.45 1020.61 1020.75 1020.89 1021.03 1021.19 1021.38 1021.59 1021.82 1022.07 1022.30 1022.52 1022.71 1022.86 1022.97 1023.06 1023.14 1023.23 1023.33 1023.47 1023.63 1023.82 1024.01 1024.21 1024.41 1024.59 1024.77 1024.93 1025.10 1025.27 1025.44 1025.63 1025.81 1025.98 1026.12 1026.23 1026.30 1026.33 1026.34
1019.08 1019.36 1019.64 1019.90 1020.12 1020.31 1020.47 1020.62 1020.77 1020.93 1021.13 1021.36 1021.62 1021.90 1022.18 1022.44 1022.67 1022.85 1022.98 1023.07 1023.13 1023.18 1023.23 1023.29 1023.38 1023.50 1023.64 1023.80 1023.98 1024.16 1024.36 1024.56 1024.77 1024.98 1025.20 1025.42 1025.62 1025.80 1025.95 1026.05 1026.12 1026.15 1026.16
1018.33 1018.67 1019.00 1019.31 1019.57 1019.79 1019.98 1020.14 1020.29 1020.46 1020.67 1020.93 1021.21 1021.53 1021.86 1022.17 1022.44 1022.67 1022.83 1022.94 1023.00 1023.04 1023.06 1023.08 1023.12 1023.19 1023.30 1023.43 1023.59 1023.78 1023.99 1024.21 1024.45 1024.70 1024.95 1025.19 1025.41 1025.60 1025.75 1025.85 1025.91 1025.94 1025.95
1017.49 1017.85 1018.20 1018.54 1018.83 1019.08 1019.28 1019.46 1019.64 1019.83 1020.06 1020.34 1020.66 1021.02 1021.39 1021.75 1022.08 1022.35 1022.56 1022.70 1022.79 1022.84 1022.86 1022.88 1022.91 1022.97 1023.06 1023.18 1023.33 1023.52 1023.74 1023.98 1024.23 1024.50 1024.76 1025.01 1025.24 1025.43 1025.58 1025.69 1025.75 1025.78 1025.79
Thickness
5750 5750 5750 5750 5750 5749 5749 5749 5748 5748 5747 5746 5745 5744 5743 5742 5742 5741 5740 5739 5738 5737 5736 5736 5735 5734 5733 5732 5730 5728 5727 5726 5724 5723 5722 5721 5720 5719 5718 5716 5715 5714 5713
5750 5750 5749 5749 5749 5749 5748 5748 5747 5746 5745 5745 5744 5743 5742 5742 5741 5740 5739 5738 5737 5736 5736 5735 5735 5733 5732 5731 5729 5728 5726 5725 5724 5723 5721 5719 5718 5717 5715 5714 5713 5712 5712
5750 5750 5749 5748 5748 5748 5747 5747 5746 5745 5744 5743 5742 5742 5741 5740 5739 5738 5737 5736 5736 5735 5735 5734 5734 5733 5731 5730 5729 5727 5725 5724 5723 5721 5720 5718 5717 5715 5713 5712 5711 5710 5709
5751 5750 5749 5748 5748 5747 5747 5745 5744 5743 5741 5740 5739 5739 5739 5738 5738 5737 5736 5735 5734 5733 5733 5733 5732 5731 5730 5729 5727 5725 5724 5722 5721 5720 5719 5717 5715 5713 5711 5710 5708 5708 5707
5751 5750 5749 5748 5747 5746 5745 5745 5743 5741 5739 5738 5737 5737 5737 5736 5736 5735 5734 5733 5732 5731 5731 5730 5730 5729 5728 5727 5726 5724 5723 5721 5720 5718 5717 5715 5713 5711 5709 5707 5706 5705 5704
5751 5750 5748 5747 5747 5745 5744 5743 5740 5740 5738 5737 5736 5734 5734 5734 5733 5732 5732 5731 5730 5729 5728 5728 5727 5726 5725 5724 5723 5722 5721 5720 5718 5717 5715 5713 5711 5708 5706 5704 5704 5703 5702
5750 5749 5748 5746 5745 5744 5743 5741 5740 5737 5736 5735 5732 5729 5730 5731 5730 5729 5729 5728 5727 5726 5725 5724 5723 5722 5721 5721 5720 5720 5719 5717 5716 5714 5713 5711 5708 5706 5703 5702 5701 5700 5699
5750 5749 5747 5745 5744 5743 5742 5740 5739 5736 5734 5734 5730 5725 5721 5722 5725 5726 5725 5724 5723 5722 5721 5720 5719 5718 5717 5717 5717 5717 5716 5715 5713 5712 5710 5707 5705 5703 5700 5699 5698 5697 5697
5749 5747 5746 5745 5744 5742 5740 5739 5738 5735 5732 5732 5731 5726 5720 5716 5717 5719 5720 5720 5719 5718 5717 5716 5715 5714 5713 5712 5712 5712 5712 5711 5710 5708 5706 5704 5701 5699 5697 5695 5695 5694 5693
5748 5747 5746 5744 5743 5741 5740 5738 5737 5735 5733 5730 5729 5728 5726 5722 5716 5713 5714 5715 5714 5713 5713 5712 5711 5710 5709 5708 5707 5706 5706 5706 5704 5703 5702 5699 5697 5695 5693 5691 5690 5690 5689
5748 5747 5745 5744 5742 5741 5739 5737 5736 5734 5732 5730 5727 5726 5723 5720 5718 5712 5708 5709 5709 5708 5708 5707 5706 5705 5704 5703 5702 5701 5701 5700 5699 5697 5696 5695 5692 5690 5688 5687 5686 5685 5684
5747 5746 5744 5743 5742 5740 5738 5737 5735 5733 5731 5729 5727 5725 5722 5719 5716 5713 5708 5706 5704 5704 5703 5702 5701 5700 5699 5698 5698 5697 5696 5695 5693 5692 5690 5689 5687 5685 5684 5682 5681 5680 5679
5746 5745 5744 5742 5741 5740 5738 5736 5734 5732 5729 5727 5725 5723 5722 5720 5719 5715 5710 5705 5701 5700 5699 5698 5696 5695 5695 5694 5693 5692 5690 5689 5688 5686 5685 5683 5681 5680 5678 5677 5676 5674 5673
5747 5746 5744 5742 5741 5739 5737 5735 5733 5730 5728 5726 5724 5722 5720 5718 5717 5714 5710 5704 5699 5696 5695 5693 5692 5691 5690 5689 5687 5686 5684 5683 5682 5680 5679 5677 5675 5674 5673 5671 5669 5667 5666
5749 5747 5744 5742 5740 5738 5736 5734 5730 5728 5726 5724 5722 5720 5718 5716 5714 5712 5709 5706 5700 5694 5690 5689 5687 5686 5685 5683 5682 5680 5679 5677 5676 5674 5673 5671 5669 5668 5666 5665 5663 5661 5660
5748 5746 5744 5741 5739 5736 5734 5732 5729 5726 5724 5722 5720 5718 5716 5714 5712 5709 5707 5703 5701 5696 5689 5686 5683 5681 5680 5679 5677 5675 5673 5671 5670 5668 5667 5665 5663 5662 5660 5658 5656 5655 5653
5748 5745 5742 5739 5737 5734 5732 5729 5727 5724 5721 5719 5718 5716 5714 5712 5709 5706 5703 5700 5697 5694 5687 5682 5680 5677 5675 5673 5671 5669 5667 5665 5664 5662 5661 5659 5657 5656 5653 5651 5650 5648 5646
5747 5744 5741 5738 5735 5732 5729 5727 5724 5722 5719 5717 5715 5713 5711 5709 5706 5704 5700 5697 5694 5690 5686 5680 5676 5674 5671 5669 5666 5664 5661 5659 5657 5656 5654 5652 5650 5648 5646 5644 5642 5640 5639
5746 5743 5740 5737 5734 5731 5728 5726 5723 5720 5718 5715 5713 5710 5708 5706 5703 5700 5697 5694 5691 5688 5684 5679 5674 5671 5667 5664 5661 5659 5656 5653 5651 5649 5647 5645 5643 5641 5639 5637 5635 5633 5631
5745 5742 5738 5736 5733 5730 5727 5724 5721 5718 5716 5713 5710 5708 5706 5703 5701 5698 5695 5691 5688 5684 5680 5676 5671 5667 5663 5660 5657 5654 5651 5648 5646 5644 5641 5639 5637 5635 5633 5630 5628 5626 5624
5744 5740 5737 5734 5731 5728 5726 5723 5720 5717 5713 5710 5708 5705 5703 5701 5698 5696 5693 5689 5685 5680 5676 5672 5668 5664 5660 5657 5654 5650 5647 5644 5641 5638 5636 5633 5630 5628 5626 5624 5621 5619 5617
5742 5738 5735 5732 5729 5728 5725 5722 5718 5714 5711 5708 5705 5702 5700 5698 5695 5693 5690 5687 5683 5679 5674 5670 5666 5662 5658 5655 5651 5648 5643 5640 5637 5633 5630 5628 5625 5623 5620 5618 5616 5613 5610
5740 5736 5733 5730 5727 5725 5722 5719 5716 5712 5709 5706 5702 5699 5697 5695 5692 5689 5685 5682 5679 5676 5673 5669 5664 5660 5657 5654 5649 5644 5640 5637 5633 5629 5626 5624 5620 5618 5616 5613 5610 5607 5604
5737 5734 5731 5727 5724 5722 5720 5717 5714 5710 5706 5703 5700 5697 5693 5691 5688 5684 5681 5677 5674 5671 5668 5665 5662 5659 5655 5651 5647 5643 5638 5633 5628 5624 5621 5618 5615 5613 5611 5608 5606 5603 5600
5735 5732 5729 5725 5721 5719 5717 5714 5711 5706 5702 5699 5696 5693 5690 5687 5684 5680 5676 5672 5668 5665 5663 5660 5657 5654 5650 5646 5642 5638 5633 5629 5625 5621 5616 5614 5611 5607 5605 5604 5601 5598 5595
5732 5729 5725 5722 5719 5716 5713 5711 5707 5703 5698 5695 5692 5689 5686 5683 5679 5675 5672 5668 5663 5660 5658 5655 5651 5648 5645 5641 5638 5634 5631 5626 5622 5618 5613 5608 5606 5602 5601 5599 5596 5593 5591